KIKU-8 (ETS-VIII)

Last updated on Feb. 25, 2017, 12:17 a.m. UTC

1 29656U 06059A   17055.13143986  .00000031  00000-0  00000+0 0  9994
2 29656   5.3994  59.9304 0010394 223.1170 136.9649  0.99005603 37340
UTC
Height (km)
Latitude
Longitude
Inclination
Orbital Period
UTC large
Height (km)
Speed (km/s)
/
Latitude / Longitude
Inclination (degrees)
Orbital Period (minutes)
Azimuth
Elevation
Range (km)
Doppler Factor
iOS Compass Heading
iOS Angle

Next 30 passes for location: Hong Kong

Rise time Rise Azimuth (degrees) Set time Set Azimuth (degrees) Duration Max altitude (degrees)

No matching passes for this satellites